Regional Weather Roundup
Issued by NWS

Home | Current Version | Previous Version | Text Only | Print | Product List | Glossary On
Versions: 1 2 3 4 5 6 7 8 9 10 11 12 13 14 15 16 17 18 19 20 21 22 23 24 25 26 27 28 29 30 31 32 33 34 35 36 37 38 39 40 41 42 43 44 45 46 47 48 49 50
199
ASUS43 KFSD 242302
RWRSD

WEATHER ROUNDUP FOR SOUTH DAKOTA
NATIONAL WEATHER SERVICE SIOUX FALLS SD
500 PM CST FRI NOV 24 2017

NOTE: "FAIR" INDICATES FEW OR NO CLOUDS BELOW 12,000 FEET WITH NO
SIGNIFICANT WEATHER AND/OR OBSTRUCTIONS TO VISIBILITY.


SDZ001>005-009-010-012>017-250000-
NORTHWEST AND NORTH CENTRAL SOUTH DAKOTA

CITY           SKY/WX    TMP DP  RH WIND       PRES   REMARKS
BUFFALO          N/A     46  31  55 W15       29.80R
FAITH            N/A     48  34  58 NW13      29.85R
MOBRIDGE       CLEAR     50  34  54 NW10      29.76R
$$

SDZ012>016-024>037-041>051-057-063-072>074-250000-
SOUTHWEST AND SOUTH CENTRAL SOUTH DAKOTA

CITY           SKY/WX    TMP DP  RH WIND       PRES   REMARKS
RAPID CTY ARPT CLEAR     49  26  41 N15       29.89R
PIERRE         CLEAR     52  36  54 NW12      29.81R
CUSTER         CLEAR     41  20  43 W3        29.91R
ELLSWORTH AFB  CLEAR     49  27  41 NW16      29.88R
PHILIP         CLEAR     52  33  48 NW20      29.86R
PINE RIDGE     MOCLDY    48  26  42 N3        29.91R
SPEARFISH      FAIR      46  25  42 NW7       29.90R
WINNER         FAIR      53  34  48 NW12      29.83R
$$

SDZ004>011-016>023-039-040-250000-
NORTHEAST SOUTH DAKOTA

CITY           SKY/WX    TMP DP  RH WIND       PRES   REMARKS
ABERDEEN       CLEAR     49  35  58 NW10      29.73R
WATERTOWN      CLEAR     44  34  67 NW12      29.69R
BROOKINGS      CLEAR     46  34  62 NW10      29.72R
SISSETON         N/A     49  36  61 NW17      29.66R
$$

SDZ017-020-022-023-036>040-048>070-250000-
SOUTHEAST SOUTH DAKOTA

CITY           SKY/WX    TMP DP  RH WIND       PRES   REMARKS
SIOUX FALLS    PTCLDY    51  38  60 NW17      29.71R
HURON          CLEAR     47  34  60 NW12      29.75R
CHAMBERLAIN    CLEAR     54  37  53 NW13      29.81R
MITCHELL       CLEAR     51  32  48 NW12      29.76R
YANKTON        CLEAR     53  34  48 NW13      29.76R
$$

ABBREVIATIONS USED IN REMARKS
   TC - TEMPERATURE IN CELSIUS
  WCI - WIND CHILL INDEX
   HX - HEAT INDEX
  VSB - VISIBILITY





USA.gov is the U.S. government's official web portal to all federal, state and local government web resources and services.